Regional Weather Roundup
Issued by NWS

Home | Current Version | Previous Version | Text Only | Print | Product List | Glossary On
Versions: 1 2 3 4 5 6 7 8 9 10 11 12 13 14 15 16 17 18 19 20 21 22 23 24 25 26 27 28 29 30 31 32 33 34 35 36 37 38 39 40 41 42 43 44 45 46 47 48 49
000
ASPQ40 PGUM 222012
RWRPQ
WEATHER ROUNDUP FOR THE MARIANAS AND MICRONESIA
NATIONAL WEATHER SERVICE TIYAN GU
600 AM CHST WED JUL 23 2014

GUZ001>004-222100-
MARIANA ISLANDS-

CITY           SKY/WX    TMP DP  RH WIND       PRES   REMARKS
GUAM AIRPORT   PTCLDY   N/A N/A N/A NE5       29.80R
ANDERSEN AFB   PTCLDY    79  77  94 E8        29.80R
ROTA AIRPORT   PTCLDY    79  77  94 E7        29.81
TINIAN AP      PTCLDY    79  75  89 E5        29.79
SAIPAN AP      PTCLDY    82  77  83 E8        29.80R HX  91

$$

PMZ161-222100-
REPUBLIC OF PALAU-

CITY           SKY/WX    TMP DP  RH WIND       PRES   REMARKS
KOROR AP       CLOUDY    82  81  94 W9        29.79S HX  95
KOROR WSO      MOCLDY    82  77  83 W9        29.79S HX  91

$$

PMZ171>174-222100-
FEDERATED STATES OF MICRONESIA-

CITY           SKY/WX    TMP DP  RH WIND       PRES   REMARKS
YAP AIRPORT    LGT RAIN  82  75  78 N15       29.79R
CHUUK AP       CLOUDY    77  77 100 VRB3      29.73R
POHNPEI AP     NOT AVBL
POHNPEI WSO    MOCLDY    75  75 100 SE3       29.77R
KOSRAE AP      NOT AVBL

$$

PMZ181-222100-
REPUBLIC OF THE MARSHALL ISLANDS-

CITY           SKY/WX    TMP DP  RH WIND       PRES   REMARKS
KWAJALEIN AP   CLOUDY    81  73  78 NE6       29.79S
MAJURO AP      NOT AVBL
MAJURO WSO     MOSUNNY   84  75  74 SE6       29.79R HX  92

$$




USA.gov is the U.S. government's official web portal to all federal, state and local government web resources and services.